Wind_Speed
6 6 6 7 6 4 7 8 4 5 4 3 6 4 9 9 8 5 16 11 19 18 17 15 14 14 13 13 13 14 15 14 14 13 15 15 13 14 15 15 15 13 12 10 8 7 7 7 7
8 6 7 4 6 8 7 6 6 8 7 8 7 2 3 7 9 13 17 18 19 17 16 14 15 14 13 13 14 15 15 15 14 14 15 15 14 13 13 13 14 14 12 10 9 8 8 7 7
8 7 5 4 3 9 10 3 8 10 6 2 4 6 3 5 11 15 18 23 19 17 16 15 15 14 12 13 14 15 15 14 15 15 15 15 15 13 13 14 14 13 12 11 10 10 8 9 8
7 6 5 10 10 9 7 4 10 9 7 2 4 7 7 11 8 9 21 20 19 17 15 15 15 13 12 13 15 15 15 15 14 14 15 15 14 13 13 14 13 12 12 11 11 9 8 8 8
8 4 5 4 9 5 4 5 5 6 5 7 2 7 11 9 10 18 20 19 18 18 16 15 14 13 12 13 15 15 16 15 14 14 14 14 14 14 13 13 12 13 13 12 10 9 8 7 6
6 4 6 7 8 3 4 8 5 4 6 8 8 13 10 10 14 16 19 18 17 17 17 15 15 13 13 14 15 16 15 14 14 14 14 14 13 13 13 13 13 15 15 15 13 11 10 9 9
10 7 3 2 6 6 4 8 5 5 7 6 11 10 9 12 16 17 17 17 17 16 17 17 15 13 13 14 15 16 16 15 15 15 14 13 13 13 12 12 13 13 13 13 13 13 10 11 11
5 5 4 4 2 5 6 8 3 2 7 13 6 5 14 16 18 18 17 17 16 16 16 17 16 14 13 12 16 15 16 16 15 14 13 12 12 12 12 10 10 9 10 10 10 11 10 11 9
4 6 4 2 4 6 8 8 5 6 12 4 5 3 19 22 20 19 18 18 17 15 15 16 16 15 13 12 13 16 16 14 13 12 11 8 6 7 8 8 7 7 8 8 7 6 7 9 10
8 8 3 4 3 2 6 9 9 7 11 9 7 12 22 24 22 21 20 19 19 17 16 16 16 16 14 12 12 12 12 11 9 8 8 6 6 5 5 6 6 4 6 7 8 7 4 2 4
8 5 4 3 4 4 6 10 9 7 8 7 13 19 20 21 20 20 19 18 18 18 17 16 16 16 15 14 13 12 12 10 9 8 7 6 5 4 3 4 7 3 4 2 6 6 3 4 3
9 6 2 3 2 4 9 11 8 7 5 7 17 20 20 18 18 19 18 17 17 18 18 17 17 16 15 13 13 12 12 12 10 9 8 6 5 4 2 1 2 1 2 3 6 7 5 5 4
12 8 5 4 5 5 9 10 7 9 5 12 18 19 18 16 18 17 16 17 17 18 19 19 18 17 15 14 14 12 11 11 9 9 9 7 4 2 2 1 1 1 0 2 3 4 3 4 3
11 9 6 5 8 6 11 11 8 9 10 15 19 19 18 17 18 18 17 17 18 18 18 19 20 18 16 15 13 12 11 11 11 10 9 8 5 3 2 3 3 3 1 3 1 2 1 1 2
6 10 8 7 6 7 12 11 12 13 14 16 18 18 17 17 20 19 19 18 19 18 18 20 19 18 17 15 13 12 11 11 11 10 10 10 8 6 4 2 4 3 3 5 4 3 2 2 2
12 12 12 7 7 3 15 16 17 15 15 16 18 17 17 19 21 21 20 19 18 17 18 18 18 18 17 16 15 13 12 12 11 9 9 10 10 8 5 4 2 2 4 4 4 4 4 4 3
13 13 17 8 9 4 14 7 19 16 15 14 17 17 18 18 21 22 22 21 20 20 18 19 19 19 18 17 15 14 13 13 12 11 11 10 10 8 8 6 4 5 4 4 5 6 5 4 5
16 18 9 11 12 11 16 11 5 13 16 14 17 18 18 19 21 25 24 24 23 21 21 19 20 19 19 17 16 15 15 14 14 13 13 11 9 10 9 8 7 6 6 5 6 6 5 5 5
12 11 15 11 7 12 15 16 11 10 13 14 16 17 18 19 21 25 26 25 24 23 22 23 22 23 21 21 20 19 18 16 15 15 14 13 11 10 11 10 9 8 8 7 7 7 7 7 5
9 13 13 8 5 12 14 14 13 14 13 15 15 18 19 19 19 23 25 25 26 25 26 25 26 25 24 21 19 18 16 15 13 13 12 14 14 13 13 13 12 12 10 9 9 8 7 6 5
12 13 12 13 9 9 5 13 13 15 12 14 17 17 18 20 21 20 25 26 25 25 25 27 29 28 26 23 18 15 11 11 12 14 13 13 14 14 14 13 13 12 11 9 8 9 9 7 6
13 13 10 9 11 13 17 13 15 16 17 15 19 19 22 22 22 21 24 28 28 27 26 26 26 27 25 23 21 20 16 15 14 13 11 11 14 15 15 14 13 13 11 9 7 7 7 8 7
12 5 14 13 13 16 12 10 14 12 12 18 18 18 21 23 25 25 25 32 31 28 26 26 25 25 24 24 22 20 18 14 12 11 10 12 15 15 14 14 14 14 11 8 7 6 7 8 11
6 8 8 9 13 15 19 16 15 13 16 16 19 19 19 20 24 26 31 31 29 28 27 24 22 23 23 23 23 20 15 13 10 10 11 10 13 14 15 14 14 11 10 11 11 10 10 9 9
9 9 8 11 13 16 18 20 13 19 9 16 18 22 14 16 19 23 26 26 31 30 28 26 26 23 23 23 22 20 16 13 12 12 10 9 10 11 11 13 12 11 9 11 10 9 9 8 7
15 13 11 10 12 14 14 11 14 14 14 16 17 14 14 12 14 20 24 29 30 28 27 28 22 19 17 14 14 19 16 12 11 12 11 10 9 9 9 9 8 8 8 8 8 7 6 4 3
9 11 9 12 12 9 8 9 6 12 12 13 12 11 8 9 11 15 17 24 28 27 25 21 18 19 18 13 7 8 8 12 10 12 7 7 8 8 8 8 7 6 6 7 6 4 4 2 2
10 4 7 9 13 16 10 10 9 6 10 12 10 10 2 7 6 8 10 15 19 23 18 16 23 29 27 14 9 12 25 11 9 11 8 8 8 9 8 8 7 9 7 5 4 1 1 3 5
7 11 9 6 8 9 11 8 1 5 11 13 14 11 7 5 5 4 4 9 9 12 15 20 20 23 29 22 18 23 20 14 14 10 9 9 9 8 7 8 8 9 6 3 1 2 2 3 4
7 10 4 7 10 8 8 12 13 9 15 14 14 10 5 2 6 7 9 11 15 15 17 18 22 21 23 8 29 29 22 17 14 12 10 10 10 11 13 12 8 5 2 1 1 2 2 3 4
Wind_Direction
179 179 213 240 223 232 88 78 22 70 107 66 79 332 49 22 5 43 144 141 144 140 144 143 141 142 144 138 126 119 113 111 107 102 100 97 83 89 83 86 84 82 77 81 91 96 108 119 107
186 196 229 270 249 97 76 52 14 53 92 110 108 111 40 79 63 120 144 151 146 141 142 147 147 148 143 133 124 121 119 115 113 111 110 104 102 97 94 91 86 84 81 80 81 86 106 118 116
194 226 262 265 293 61 82 54 82 104 121 140 109 36 29 62 117 140 133 147 143 143 146 153 148 148 141 132 127 123 120 117 112 109 108 102 105 101 94 89 84 79 75 72 75 82 102 118 119
214 206 226 245 92 91 55 82 117 122 92 81 101 86 91 97 119 126 143 145 144 146 146 151 150 150 141 137 133 129 122 116 112 110 108 104 104 103 95 88 81 74 71 76 75 73 85 101 107
221 248 227 178 104 105 101 126 150 83 107 108 147 113 109 94 109 133 147 150 149 148 146 150 150 150 145 142 138 132 125 120 115 111 110 108 105 102 98 91 84 77 71 73 77 80 85 96 104
220 271 225 163 110 95 141 167 151 77 112 118 121 132 100 116 130 147 151 153 153 150 149 154 156 155 152 148 145 136 130 125 120 115 112 109 107 107 103 95 89 84 80 74 71 71 82 83 94
271 237 61 55 113 174 130 168 191 100 127 95 138 143 116 148 147 154 156 154 156 155 154 156 159 162 158 156 152 144 135 130 125 122 118 112 110 106 103 99 92 81 74 69 74 74 77 88 95
275 272 204 207 180 112 146 174 107 188 80 123 154 166 161 143 152 153 158 160 161 162 162 162 163 163 163 167 160 150 143 139 135 130 126 117 109 103 95 92 100 90 72 65 69 82 87 82 81
260 236 201 132 236 108 151 166 131 102 137 142 143 260 138 151 154 159 164 166 167 171 169 169 167 170 170 168 171 160 157 151 145 135 132 113 126 119 108 131 115 93 72 60 64 72 100 94 89
234 249 98 22 4 243 173 195 144 168 151 131 123 109 136 152 163 169 173 175 174 177 177 177 175 175 173 171 174 175 172 167 173 166 163 153 141 139 118 133 121 114 90 59 56 39 102 87 108
201 246 107 92 5 268 185 175 152 181 186 149 151 146 153 162 172 178 180 182 179 178 182 184 181 183 181 179 178 182 184 186 188 188 182 174 165 161 144 154 164 128 48 96 44 44 105 93 82
231 233 218 48 9 221 182 150 179 196 55 120 150 156 162 171 176 184 182 184 180 183 187 189 188 190 191 187 185 187 189 190 188 194 199 200 199 188 195 104 71 139 53 40 31 56 88 116 112
238 197 229 266 275 246 175 175 159 178 107 143 151 161 170 179 179 182 180 187 189 187 189 192 193 193 197 197 195 193 194 195 194 194 202 202 206 216 194 168 134 114 64 90 55 61 82 133 145
204 247 240 269 270 224 205 176 186 148 152 148 162 170 176 183 182 180 186 185 192 190 191 194 197 199 198 204 203 198 198 196 198 201 204 211 213 223 226 204 184 167 161 172 137 82 32 325 237
235 230 224 229 256 228 212 176 213 146 170 159 172 176 181 191 188 193 191 193 193 193 189 196 198 200 202 205 210 207 204 204 205 208 213 213 217 232 234 223 221 203 189 192 206 208 230 268 271
220 233 219 145 184 178 205 192 187 165 175 173 177 181 188 194 201 200 200 202 197 201 196 197 199 201 204 205 210 211 209 208 215 216 223 229 234 243 235 240 229 186 216 231 230 233 239 256 244
210 217 219 151 193 175 209 241 142 173 189 183 184 190 198 198 207 208 207 207 208 206 203 201 201 203 205 210 210 213 215 211 217 220 225 232 238 242 233 223 221 220 236 234 232 236 255 243 250
208 225 206 217 183 214 200 235 150 180 199 199 191 198 203 206 208 209 212 212 211 211 211 208 207 207 207 209 212 216 220 220 222 227 232 232 237 233 225 227 224 222 228 230 240 246 244 263 265
298 237 216 207 164 209 219 225 192 188 211 214 199 201 210 214 209 209 212 214 214 213 211 212 210 209 203 206 209 214 218 221 225 231 230 230 232 229 224 233 230 227 228 230 223 230 229 240 237
245 236 230 135 203 216 211 235 239 226 217 229 219 210 210 210 212 203 209 211 212 213 213 213 214 211 208 210 214 219 229 231 231 230 225 220 220 219 219 230 236 229 226 222 216 223 231 236 234
227 237 224 243 178 219 238 232 243 243 255 244 242 233 221 216 206 209 210 210 209 211 210 213 213 210 209 209 209 212 225 229 222 221 224 229 220 217 221 227 235 240 231 218 218 222 221 237 205
236 218 250 232 215 219 201 244 209 227 244 242 242 233 231 219 215 205 206 208 210 212 213 214 211 208 208 205 208 209 217 229 229 229 224 228 226 222 223 227 224 225 237 243 223 223 240 248 246
250 211 230 232 236 258 205 246 261 191 226 244 242 236 228 221 217 210 206 206 209 208 208 210 206 206 203 204 204 211 221 233 236 236 232 230 236 243 233 221 223 225 234 243 241 234 234 238 260
138 194 196 222 240 236 243 233 247 215 219 245 243 233 232 222 219 218 213 211 209 205 205 206 203 205 200 196 199 205 211 225 238 238 240 236 244 240 243 231 227 231 235 240 230 217 223 228 247
217 216 219 214 220 242 241 242 249 269 237 251 259 265 224 225 221 218 217 213 213 209 203 201 200 195 193 192 190 194 204 218 227 240 244 242 248 242 239 230 229 234 238 240 244 223 227 227 241
204 222 252 248 247 246 200 243 254 261 266 273 274 272 286 264 237 229 225 223 217 211 205 205 195 188 182 183 194 190 198 215 235 246 236 237 245 232 217 211 211 215 235 229 222 214 216 201 218
190 230 266 278 264 271 251 200 258 246 246 252 257 259 252 281 273 244 229 229 226 213 209 202 175 150 133 119 104 300 234 219 221 244 220 214 214 211 207 196 208 208 212 206 196 189 184 180 237
256 14 229 227 262 257 254 245 271 230 270 277 295 272 310 327 313 250 223 228 218 223 180 165 155 127 103 72 69 294 289 251 227 221 205 200 193 199 205 198 189 165 166 185 177 208 288 307 305
180 223 232 300 301 284 273 262 10 280 298 310 298 320 353 344 32 60 122 93 129 133 146 154 152 135 110 110 115 192 244 231 213 200 178 178 180 183 194 160 161 152 151 149 47 352 324 319 328
288 304 297 261 240 240 291 285 299 286 289 299 306 315 14 21 110 120 127 144 148 159 157 152 134 131 165 172 169 188 204 192 174 162 160 175 176 157 151 150 158 150 150 89 3 342 8 348 330
Height
776 777 777 773 773 761 779 779 766 772 771 768 767 772 777 781 787 805 806 809 811 815 820 824 825 827 829 829 829 830 830 831 830 830 830 830 830 830 830 830 830 829 828 828 828 827 827 828 829
778 778 775 757 766 775 786 767 773 769 772 769 773 775 779 791 791 801 806 810 813 818 822 825 826 828 829 829 830 830 831 832 831 830 831 831 831 831 832 832 832 831 831 830 829 829 829 829 830
777 776 763 756 762 778 783 769 768 771 770 772 779 776 781 794 797 801 804 811 815 820 823 826 827 829 830 830 831 833 833 833 832 832 832 832 833 833 833 833 833 833 832 831 830 830 829 829 830
775 769 760 765 770 769 769 766 767 771 774 772 773 788 790 795 800 803 809 813 817 820 823 825 828 829 830 831 832 834 835 834 834 834 834 834 834 835 835 835 835 834 833 832 831 831 831 831 831
772 759 765 767 770 764 760 761 762 775 777 779 776 791 796 801 804 808 811 814 817 820 823 827 828 830 831 832 833 834 835 835 835 836 836 836 836 836 836 836 836 835 835 834 833 833 832 832 832
765 758 769 771 770 765 758 758 763 767 772 781 783 788 796 804 807 811 812 814 817 820 823 827 828 830 832 832 834 835 836 836 837 837 838 838 838 837 838 837 838 837 836 836 835 835 835 835 834
762 761 768 766 768 769 761 754 763 768 775 780 778 791 797 803 808 810 813 815 818 820 823 827 830 831 832 833 834 835 837 838 838 838 838 839 838 839 839 839 839 839 839 838 837 837 836 836 836
759 758 770 764 769 769 758 760 761 765 782 775 777 791 800 801 807 810 813 815 818 820 822 825 829 832 834 835 835 837 838 838 838 838 839 839 840 841 840 841 841 840 840 839 839 838 838 838 838
761 768 769 767 768 762 753 764 763 765 775 775 780 780 783 801 807 810 812 815 817 820 822 825 827 830 832 835 837 836 838 840 840 840 840 841 842 842 842 841 841 841 841 840 839 839 839 839 839
763 762 765 756 755 756 752 755 767 770 776 781 787 787 795 801 805 807 810 812 816 820 822 824 827 829 831 834 836 838 839 840 841 841 841 841 842 842 841 842 841 841 840 840 840 840 840 839 838
758 760 755 754 752 750 751 756 761 767 775 773 786 790 796 800 803 805 807 810 812 817 821 823 827 829 830 832 834 837 838 840 841 841 842 841 842 841 840 840 840 841 841 839 840 839 838 839 838
770 752 752 750 751 752 754 751 768 763 768 765 777 787 794 797 800 802 806 808 811 815 820 823 826 829 831 831 833 834 836 838 839 841 842 843 842 842 841 840 841 841 841 841 840 839 840 840 840
766 752 750 749 751 749 746 757 762 764 764 767 777 785 791 795 798 801 805 809 811 814 818 822 825 827 830 831 831 833 835 837 839 840 841 841 842 842 841 841 840 840 841 840 841 840 840 840 841
752 751 750 750 749 749 754 756 762 760 764 769 777 782 787 791 794 799 802 806 810 812 816 819 822 825 827 830 832 833 834 835 837 839 840 841 841 841 840 839 839 839 839 839 839 839 840 839 839
756 765 754 750 750 753 749 764 768 759 762 770 777 780 784 789 791 796 800 802 807 810 813 817 821 824 826 829 832 832 833 835 836 837 838 839 839 838 839 838 838 838 839 839 839 839 839 838 838
765 761 769 750 753 751 752 764 749 756 761 768 773 777 781 785 788 793 797 801 805 808 811 816 819 822 825 827 829 831 832 833 835 836 837 838 839 838 838 838 837 837 838 838 838 838 837 836 836
762 771 764 761 749 755 758 755 740 752 758 764 770 774 777 780 786 789 793 798 802 806 809 813 816 819 822 825 827 829 830 830 832 833 834 835 837 838 837 837 835 837 837 837 837 837 836 835 835
766 768 757 761 756 757 759 754 749 750 753 757 763 768 772 775 777 784 789 793 798 802 806 810 813 816 818 822 824 826 827 828 829 830 832 832 834 834 836 836 835 835 834 835 836 836 836 835 834
757 753 757 749 744 755 755 753 749 747 751 753 756 763 766 768 772 777 783 787 792 797 802 806 809 811 814 817 820 822 822 824 826 827 828 830 832 834 835 835 835 834 833 832 834 834 834 833 833
763 765 758 751 751 755 753 757 744 740 747 746 749 753 757 760 765 770 775 780 785 791 795 800 802 806 809 812 816 818 821 822 824 825 826 825 826 828 830 832 832 832 830 830 830 831 830 830 832
765 765 758 762 756 752 758 766 759 742 739 742 742 743 745 750 755 761 767 772 778 784 789 791 794 798 802 807 813 816 819 821 821 822 823 824 825 825 826 829 831 832 830 827 828 829 828 825 827
770 754 758 762 767 776 753 781 755 751 750 744 739 738 738 739 743 749 755 763 768 773 779 783 788 792 797 803 807 811 813 814 815 817 818 821 824 823 824 825 826 827 829 827 826 826 826 827 824
763 750 758 759 765 761 765 777 753 742 760 748 732 730 728 728 732 736 741 748 756 765 771 775 780 785 790 796 802 807 810 811 814 815 817 819 820 822 822 821 823 824 826 826 826 826 825 824 824
748 761 763 764 764 781 765 763 757 744 744 736 721 716 718 719 723 726 733 740 747 755 762 768 775 779 785 791 796 802 806 810 812 814 814 817 819 819 818 819 820 822 823 822 821 819 820 819 821
759 766 783 789 782 782 746 754 743 730 720 722 718 709 701 709 714 718 724 728 736 743 753 761 766 774 780 785 790 796 802 806 808 811 813 816 816 816 817 819 818 819 820 819 819 818 818 817 816
757 758 770 789 778 760 734 768 746 718 712 709 710 714 710 709 707 711 715 721 728 739 746 753 763 771 779 785 790 789 793 800 805 808 807 811 817 816 814 816 816 816 817 819 817 817 817 815 814
753 770 744 763 755 768 742 736 730 717 716 710 709 707 710 712 709 704 709 717 722 730 740 751 762 770 776 781 783 798 795 795 799 805 805 807 811 816 816 813 815 815 817 817 817 815 815 814 813
752 743 770 762 789 784 755 748 746 727 720 707 706 701 705 716 709 705 706 712 718 726 737 754 764 770 771 780 768 786 799 796 798 801 803 806 810 813 815 813 814 813 816 818 816 814 813 812 811
756 758 758 757 759 771 772 751 712 724 716 714 706 699 708 713 713 711 711 721 727 737 749 759 766 768 765 775 779 786 790 796 795 799 801 806 809 810 813 812 815 815 816 817 815 813 812 811 811
747 751 751 767 768 758 763 755 709 713 711 708 707 704 709 716 715 718 722 729 734 744 752 762 763 764 767 769 766 781 787 790 794 798 802 806 807 808 809 811 814 814 815 813 813 813 812 811 810